CW1575 Weather Reports


Display with metric or nautical units.
time (UTC)temp
F
wind
direction
speed
MPH
gust
MPH
rain 1hr
in
rain 24hr
in
rain mn
in
humidity
%
barometer
mb
20150329091509 52 327 3.0 8.0 0.00 0.00 0.00 26 1011.7
20150329090509 52 312 5.0 13.0 0.00 0.00 0.00 27 1011.7
20150329085508 52 297 2.0 5.0 0.00 0.00 0.00 30 1011.4
20150329084510 53 323 1.0 3.0 0.00 0.00 0.00 38 1011.3
20150329083510 54 17 2.0 7.0 0.00 0.00 0.00 37 1010.9
20150329082509 54 259 1.0 2.0 0.00 0.00 0.00 37 1010.8
20150329081509 55 259 2.0 3.0 0.00 0.00 0.00 38 1010.8
20150329080509 55 250 2.0 5.0 0.00 0.00 0.00 39 1010.6
20150329075509 55 237 2.0 9.0 0.00 0.00 0.00 39 1010.3
20150329074509 55 36 3.0 8.0 0.00 0.00 0.00 34 1010.3
20150329073509 55 244 2.0 3.0 0.00 0.00 0.00 40 1010.3
20150329072508 55 17 2.0 7.0 0.00 0.00 0.00 39 1009.9
20150329071509 56 5 1.0 5.0 0.00 0.00 0.00 38 1009.8
20150329070509 56 204 1.0 3.0 0.00 0.00 0.00 37 1009.6
20150329065510 56 155 0.0 6.0 0.00 0.00 0.00 38 1009.5
20150329064506 56 161 2.0 5.0 0.00 0.00 0.00 38 1009.3
20150329063521 56 152 3.0 5.0 0.00 0.00 0.00 38 1009.2
20150329062507 56 154 1.0 3.0 0.00 0.00 0.00 42 1009.2
20150329061506 57 84 2.0 3.0 0.00 0.00 0.00 42 1009.1
20150329060508 57 350 1.0 2.0 0.00 0.00 0.00 41 1009.0
20150329055507 58 24 1.0 3.0 0.00 0.00 0.00 41 1009.2
20150329054507 58 238 1.0 3.0 0.00 0.00 0.00 40 1008.9
20150329053507 59 305 4.0 8.0 0.00 0.00 0.00 39 1008.6
20150329052507 59 320 3.0 8.0 0.00 0.00 0.00 38 1008.8
20150329051508 60 315 3.0 8.0 0.00 0.00 0.00 37 1009.2
20150329050507 60 333 2.0 9.0 0.00 0.00 0.00 36 1008.9
20150329045507 60 331 5.0 15.0 0.00 0.00 0.00 35 1009.3
20150329044507 60 321 6.0 12.0 0.00 0.00 0.00 33 1009.5
20150329043507 60 318 7.0 12.0 0.00 0.00 0.00 31 1009.4
20150329042507 60 23 7.0 12.0 0.00 0.00 0.00 30 1009.1
20150329041507 61 316 2.0 5.0 0.00 0.00 0.00 33 1008.9
20150329040515 61 217 1.0 5.0 0.00 0.00 0.00 32 1008.4
20150329035507 62 175 3.0 8.0 0.00 0.00 0.00 31 1008.1
20150329034507 62 170 4.0 6.0 0.00 0.00 0.00 28 1008.0
20150329033507 63 195 0.0 2.0 0.00 0.00 0.00 27 1008.2
20150329032508 64 195 1.0 2.0 0.00 0.00 0.00 29 1007.8
20150329031506 64 225 0.0 3.0 0.00 0.00 0.00 29 1007.6
20150329030516 64 213 3.0 14.0 0.00 0.00 0.00 26 1007.9
20150329025507 64 249 4.0 8.0 0.00 0.00 0.00 25 1008.1
20150329024507 65 257 6.0 12.0 0.00 0.00 0.00 24 1008.0
20150329023506 65 280 2.0 9.0 0.00 0.00 0.00 25 1007.8
20150329022507 66 244 2.0 7.0 0.00 0.00 0.00 24 1007.7
20150329021507 66 264 5.0 15.0 0.00 0.00 0.00 23 1007.5
20150329020507 67 273 4.0 13.0 0.00 0.00 0.00 22 1007.4
20150329015508 68 283 3.0 8.0 0.00 0.00 0.00 22 1007.3
20150329014507 68 283 2.0 12.0 0.00 0.00 0.00 22 1007.4
20150329013507 69 289 7.0 17.0 0.00 0.00 0.00 21 1007.3
20150329012507 70 263 6.0 13.0 0.00 0.00 0.00 19 1007.0
20150329011507 72 245 5.0 14.0 0.00 0.00 0.00 18 1006.7
20150329010507 73 252 3.0 10.0 0.00 0.00 0.00 18 1006.7
20150329005508 74 268 4.0 15.0 0.00 0.00 0.00 17 1006.7
20150329004508 75 216 6.0 14.0 0.00 0.00 0.00 16 1006.6
20150329003507 76 291 2.0 10.0 0.00 0.00 0.00 16 1006.5
20150329002507 76 206 5.0 10.0 0.00 0.00 0.00 15 1006.5
20150329001507 77 275 3.0 8.0 0.00 0.00 0.00 16 1006.3
20150329000507 77 277 5.0 10.0 0.00 0.00 0.00 15 1006.3
20150328235506 78 356 5.0 8.0 0.00 0.00 0.00 15 1006.2
20150328234507 79 295 6.0 12.0 0.00 0.00 0.00 15 1006.4
20150328233506 80 274 5.0 12.0 0.00 0.00 0.00 14 1006.4
20150328232508 81 282 5.0 15.0 0.00 0.00 0.00 15 1006.5
20150328231507 81 329 4.0 10.0 0.00 0.00 0.00 14 1006.6
20150328230507 82 295 5.0 10.0 0.00 0.00 0.00 15 1006.6
20150328225510 82 235 5.0 12.0 0.00 0.00 0.00 14 1006.6
20150328224507 83 250 6.0 12.0 0.00 0.00 0.00 15 1006.7
20150328223507 83 225 5.0 13.0 0.00 0.00 0.00 14 1006.8
20150328222507 83 258 5.0 14.0 0.00 0.00 0.00 14 1006.9
20150328221507 83 237 3.0 10.0 0.00 0.00 0.00 13 1006.9
20150328220507 83 235 5.0 12.0 0.00 0.00 0.00 15 1007.0
20150328215507 82 240 6.0 12.0 0.00 0.00 0.00 16 1007.1
20150328214506 82 260 6.0 13.0 0.00 0.00 0.00 15 1007.3
20150328213507 82 285 6.0 12.0 0.00 0.00 0.00 15 1007.4
20150328212508 82 251 7.0 17.0 0.00 0.00 0.00 14 1007.3
20150328211506 83 277 7.0 20.0 0.00 0.00 0.00 14 1007.6
20150328210508 84 243 7.0 16.0 0.00 0.00 0.00 12 1007.4
20150328205506 84 242 7.0 16.0 0.00 0.00 0.00 13 1007.6
20150328204507 84 246 7.0 12.0 0.00 0.00 0.00 12 1007.7
20150328203507 84 284 6.0 12.0 0.00 0.00 0.00 12 1007.7
20150328202507 84 223 5.0 12.0 0.00 0.00 0.00 13 1008.0
20150328201507 84 308 5.0 13.0 0.00 0.00 0.00 12 1008.4
20150328200507 84 266 3.0 12.0 0.00 0.00 0.00 11 1008.4
20150328195507 84 15 2.0 10.0 0.00 0.00 0.00 15 1008.5
20150328194507 83 155 2.0 10.0 0.00 0.00 0.00 13 1008.8
20150328193507 84 59 2.0 6.0 0.00 0.00 0.00 14 1009.1
20150328192507 84 224 5.0 7.0 0.00 0.00 0.00 14 1009.3
20150328175507 75 81 2.0 7.0 0.00 0.00 0.00 19 1011.1
20150328174508 74 103 3.0 7.0 0.00 0.00 0.00 21 1011.3
20150328173507 73 71 3.0 10.0 0.00 0.00 0.00 21 1011.4
20150328172507 73 108 5.0 8.0 0.00 0.00 0.00 22 1011.6
20150328171506 73 132 6.0 13.0 0.00 0.00 0.00 22 1011.6
20150328170507 72 132 4.0 10.0 0.00 0.00 0.00 22 1011.9
20150328165506 71 127 4.0 9.0 0.00 0.00 0.00 24 1012.0
20150328164507 70 120 4.0 10.0 0.00 0.00 0.00 25 1012.3
20150328163507 70 155 5.0 10.0 0.00 0.00 0.00 25 1012.4
20150328162507 69 146 4.0 9.0 0.00 0.00 0.00 27 1012.6
20150328161507 68 142 3.0 7.0 0.00 0.00 0.00 28 1012.8
20150328160506 66 132 4.0 6.0 0.00 0.00 0.00 29 1012.8
20150328155507 65 161 2.0 5.0 0.00 0.00 0.00 32 1012.9
20150328154507 63 188 3.0 8.0 0.00 0.00 0.00 32 1013.1
20150328153507 62 164 3.0 6.0 0.00 0.00 0.00 33 1013.2
20150328152507 61 136 2.0 7.0 0.00 0.00 0.00 35 1013.3
20150328151506 59 163 2.0 6.0 0.00 0.00 0.00 37 1013.5
20150328150507 57 153 2.0 6.0 0.00 0.00 0.00 40 1013.3
20150328145507 55 148 1.0 3.0 0.00 0.00 0.00 43 1013.5
20150328144507 53 125 2.0 3.0 0.00 0.00 0.00 44 1013.7
20150328143507 51 119 2.0 3.0 0.00 0.00 0.00 48 1013.8
20150328142507 48 124 2.0 3.0 0.00 0.00 0.00 51 1013.9
20150328141506 45 117 2.0 3.0 0.00 0.00 0.00 56 1014.0
20150328140508 43 112 1.0 2.0 0.00 0.00 0.00 60 1014.1
20150328135507 42 111 1.0 3.0 0.00 0.00 0.00 61 1014.2
20150328134509 41 111 1.0 2.0 0.00 0.00 0.00 61 1014.1
20150328133507 41 111 1.0 2.0 0.00 0.00 0.00 61 1014.1
20150328132507 41 111 1.0 2.0 0.00 0.00 0.00 61 1014.1
20150328131511 42 93 1.0 2.0 0.00 0.00 0.00 60 1014.2
20150328130507 42 63 0.0 3.0 0.00 0.00 0.00 59 1014.2
20150328125508 42 62 1.0 3.0 0.00 0.00 0.00 60 1014.1
20150328124507 42 5 2.0 3.0 0.00 0.00 0.00 59 1014.1
20150328123507 42 116 2.0 5.0 0.00 0.00 0.00 59 1013.9
20150328122507 42 126 3.0 3.0 0.00 0.00 0.00 59 1013.9
20150328121507 42 28 1.0 3.0 0.00 0.00 0.00 59 1013.9
20150328120506 43 30 2.0 3.0 0.00 0.00 0.00 58 1014.0
20150328115507 43 333 1.0 3.0 0.00 0.00 0.00 58 1013.9
20150328114508 43 306 2.0 3.0 0.00 0.00 0.00 58 1013.9
20150328113507 43 176 2.0 3.0 0.00 0.00 0.00 57 1013.8
20150328112508 43 208 1.0 2.0 0.00 0.00 0.00 57 1013.9
20150328111507 43 208 1.0 2.0 0.00 0.00 0.00 57 1014.0
20150328110506 43 213 1.0 5.0 0.00 0.00 0.00 57 1013.9
20150328105507 43 241 2.0 3.0 0.00 0.00 0.00 57 1013.8
20150328104507 43 229 1.0 3.0 0.00 0.00 0.00 58 1013.8
20150328103507 43 271 1.0 2.0 0.00 0.00 0.00 58 1013.9
20150328102507 43 271 1.0 3.0 0.00 0.00 0.00 58 1014.0
20150328101507 44 240 1.0 3.0 0.00 0.00 0.00 57 1014.1
20150328100508 44 208 1.0 3.0 0.00 0.00 0.00 56 1013.9
20150328095507 44 208 0.0 2.0 0.00 0.00 0.00 55 1013.9
20150328094507 44 208 1.0 2.0 0.00 0.00 0.00 56 1014.1
20150328093506 45 208 0.0 2.0 0.00 0.00 0.00 54 1014.1
20150328092507 45 208 1.0 3.0 0.00 0.00 0.00 53 1014.2